TimeEST,TemperatureF,Dew PointF,Humidity,Sea Level PressureIn,VisibilityMPH,Wind Direction,Wind SpeedMPH,Gust SpeedMPH,PrecipitationIn,Events,Conditions,WindDirDegrees,DateUTC
12:53 AM,44.1,43.0,96,30.48,5.0,Calm,Calm,-,N/A,,Clear,0,2012-11-12 05:53:00
1:53 AM,42.1,41.0,96,30.48,3.0,Calm,Calm,-,N/A,,Clear,0,2012-11-12 06:53:00
2:53 AM,43.0,42.1,97,30.48,3.0,Calm,Calm,-,N/A,,Clear,0,2012-11-12 07:53:00
3:53 AM,39.9,39.9,100,30.46,2.5,Calm,Calm,-,N/A,,Clear,0,2012-11-12 08:53:00
4:34 AM,39.2,39.2,100,30.46,1.0,SE,3.5,-,N/A,,Mist,140,2012-11-12 09:34:00
4:53 AM,46.0,45.0,96,30.46,1.0,South,6.9,-,N/A,,Mist,180,2012-11-12 09:53:00
4:55 AM,46.4,44.6,93,30.46,2.0,South,8.1,-,N/A,,Scattered Clouds,170,2012-11-12 09:55:00
5:03 AM,46.4,46.4,100,30.46,4.0,South,5.8,-,N/A,,Scattered Clouds,190,2012-11-12 10:03:00
5:26 AM,44.6,44.6,100,30.46,2.0,South,6.9,-,N/A,,Mostly Cloudy,180,2012-11-12 10:26:00
5:34 AM,44.6,44.6,100,30.46,1.2,SSW,3.5,-,N/A,,Mostly Cloudy,210,2012-11-12 10:34:00
5:42 AM,44.6,44.6,100,30.46,0.8,Calm,Calm,-,N/A,,Overcast,0,2012-11-12 10:42:00
5:53 AM,46.9,46.0,97,30.46,0.5,Calm,Calm,-,N/A,Fog,Fog,0,2012-11-12 10:53:00
6:04 AM,44.6,44.6,100,30.46,0.2,Calm,Calm,-,N/A,Fog,Fog,0,2012-11-12 11:04:00
6:53 AM,39.9,39.9,100,30.47,0.2,Calm,Calm,-,N/A,Fog,Fog,0,2012-11-12 11:53:00
7:23 AM,48.2,48.2,100,30.47,1.0,Calm,Calm,-,N/A,,Overcast,0,2012-11-12 12:23:00
7:33 AM,46.4,46.4,100,30.47,0.8,Calm,Calm,-,N/A,,Overcast,0,2012-11-12 12:33:00
7:40 AM,48.2,48.2,100,30.47,1.2,Calm,Calm,-,N/A,,Overcast,0,2012-11-12 12:40:00
7:53 AM,48.9,48.9,100,30.47,1.2,Calm,Calm,-,N/A,,Overcast,0,2012-11-12 12:53:00
8:24 AM,50.0,50.0,100,30.46,2.5,Calm,Calm,-,N/A,,Overcast,0,2012-11-12 13:24:00
8:40 AM,51.8,51.8,100,30.46,3.0,Calm,Calm,-,N/A,,Mostly Cloudy,0,2012-11-12 13:40:00
8:53 AM,52.0,50.0,93,30.46,3.0,South,3.5,-,N/A,,Mostly Cloudy,190,2012-11-12 13:53:00
9:07 AM,53.6,51.8,94,30.46,4.0,South,5.8,-,N/A,,Scattered Clouds,180,2012-11-12 14:07:00
9:53 AM,55.9,53.1,90,30.45,7.0,SSW,6.9,-,N/A,,Partly Cloudy,210,2012-11-12 14:53:00
10:28 AM,57.2,53.6,88,30.44,8.0,South,6.9,-,N/A,,Mostly Cloudy,190,2012-11-12 15:28:00
10:53 AM,55.9,52.0,87,30.44,8.0,SSW,11.5,-,N/A,,Mostly Cloudy,200,2012-11-12 15:53:00
11:53 AM,57.9,54.0,87,30.42,7.0,South,3.5,-,N/A,,Overcast,190,2012-11-12 16:53:00
12:53 PM,60.1,55.0,83,30.40,7.0,SE,4.6,-,N/A,,Overcast,140,2012-11-12 17:53:00
1:53 PM,63.0,55.0,75,30.37,10.0,South,5.8,-,N/A,,Mostly Cloudy,170,2012-11-12 18:53:00
2:08 PM,64.4,55.4,73,30.36,10.0,South,12.7,18.4,N/A,,Mostly Cloudy,170,2012-11-12 19:08:00
2:53 PM,63.0,54.0,72,30.35,10.0,South,12.7,18.4,N/A,,Partly Cloudy,180,2012-11-12 19:53:00
3:53 PM,62.1,54.0,75,30.34,10.0,Variable,4.6,-,N/A,,Overcast,0,2012-11-12 20:53:00
4:53 PM,61.0,54.0,78,30.32,10.0,SSE,8.1,-,N/A,,Mostly Cloudy,160,2012-11-12 21:53:00
5:21 PM,60.8,57.2,88,30.30,10.0,South,11.5,17.3,N/A,,Mostly Cloudy,170,2012-11-12 22:21:00
5:53 PM,61.0,57.0,87,30.30,10.0,South,11.5,17.3,N/A,,Overcast,170,2012-11-12 22:53:00
6:03 PM,60.8,57.2,88,30.30,10.0,South,11.5,18.4,N/A,,Overcast,170,2012-11-12 23:03:00
6:53 PM,61.0,57.9,90,30.29,10.0,South,12.7,25.3,N/A,,Overcast,170,2012-11-12 23:53:00
7:53 PM,61.0,57.9,90,30.27,10.0,South,9.2,17.3,N/A,,Overcast,190,2012-11-13 00:53:00
8:53 PM,61.0,57.9,90,30.26,10.0,South,4.6,-,N/A,,Overcast,170,2012-11-13 01:53:00
9:05 PM,60.8,57.2,88,30.26,10.0,South,5.8,-,N/A,,Overcast,180,2012-11-13 02:05:00
9:46 PM,60.8,57.2,88,30.25,10.0,South,8.1,-,N/A,,Overcast,170,2012-11-13 02:46:00
9:53 PM,61.0,57.0,87,30.25,10.0,South,6.9,-,N/A,,Overcast,190,2012-11-13 02:53:00
10:11 PM,60.8,57.2,88,30.24,10.0,South,3.5,-,N/A,,Overcast,180,2012-11-13 03:11:00
10:39 PM,60.8,57.2,88,30.23,10.0,Calm,Calm,-,N/A,,Overcast,0,2012-11-13 03:39:00
10:53 PM,61.0,57.0,87,30.23,10.0,SSW,8.1,-,N/A,,Overcast,200,2012-11-13 03:53:00
11:53 PM,61.0,57.0,87,30.21,10.0,South,5.8,-,0.00,,Overcast,170,2012-11-13 04:53:00